Regional Weather Roundup
Issued by NWS

Home | Current Version | Previous Version | Text Only | Print | Product List | Glossary On
Versions: 1 2 3 4 5 6 7 8 9 10 11 12 13 14 15 16 17 18 19 20 21 22 23 24 25 26 27 28 29 30 31 32 33 34 35 36 37 38 39 40 41 42 43 44 45 46 47 48 49 50
000
ASUS44 KFWD 202310
RWRTX
NORTH TEXAS HOURLY WEATHER ROUNDUP
NATIONAL WEATHER SERVICE FORT WORTH TX
600 PM CDT MON OCT 20 2014

NOTE: "FAIR" INDICATES FEW OR NO CLOUDS BELOW 12,000 FEET WITH NO
SIGNIFICANT WEATHER AND/OR OBSTRUCTIONS TO VISIBILITY.

TXZ118-119-210000-
DALLAS/FORT WORTH METROPLEX

CITY           SKY/WX    TMP DP  RH WIND       PRES   REMARKS
DFW AIRPORT    MOCLDY    80  59  48 SE6       30.00S
DALLAS LOVE    PTCLDY    80  59  48 E6        30.00F
FTW MEACHAM    PTCLDY    81  57  43 SE9       30.00S
DAL-EXECUTIVE  PTCLDY    80  58  46 SE8       30.01S
FTW-ALLIANCE   PTCLDY    79  58  48 SE7       30.00S
FTW-NAS-JRB    PTCLDY    82  56  40 E7        30.04S
FTW-SPINKS     PTCLDY    81  57  44 E3        30.02S
ARLINGTON      PTCLDY    81  56  42 E5        30.01S
GRAND PRAIRIE  CLEAR     81  59  47 MISG      30.02S
ADDISON        PTCLDY    79  57  47 CALM      30.01F
MESQUITE       CLEAR     79  57  47 E3        30.01F
LANCASTER      PTCLDY    78  56  45 E6        30.02S
$$

TXZ091>094-102>105-117-120-121-131>134-210000-
NORTH CENTRAL TEXAS

CITY           SKY/WX    TMP DP  RH WIND       PRES   REMARKS
SHRMAN/DENISON CLEAR     79  62  55 CALM      30.02S
GAINESVILLE    CLEAR     78  61  54 MISG      30.03S HAZE
BOWIE          CLEAR     80  59  49 CALM      30.02R
BRIDGEPORT     PTCLDY    80  59  48 E3        30.02S
DECATUR        PTCLDY    77  58  51 SE5       30.02S
DENTON         CLEAR     79  58  48 E7        30.00S
MCKINNEY       CLEAR     78  60  53 SE6       30.01S
GREENVILLE     CLEAR     79  59  50 S3        30.02S
ROCKWALL       CLEAR     78  61  54 SE3       30.00S
TERRELL        PTCLDY    79  60  52 E6        30.02S
WAXAHACHIE     PTCLDY    79  58  48 E3        30.02S
CLEBURNE       CLEAR     79  59  50 SE6       30.03S
GRANBURY       CLEAR     81  56  42 E6        30.02S
$$

TXZ083>090-098>101-113>116-127>130-139>142-154-155-210000-
WESTERN NORTH TEXAS

CITY           SKY/WX    TMP DP  RH WIND       PRES   REMARKS
WICHITA FALLS  PTCLDY    78  59  51 S8        29.99S
WF-KICKAPOO    PTCLDY    82  56  40 SE5       30.01S
VERNON         MOSUNNY   84  54  34 SE7       30.00S
ABILENE        MOSUNNY   79  53  40 SE8       30.02S
ABILENE-DYESS  MOSUNNY   80  56  42 E8        30.01S
BRECKENRIDGE   SUNNY     81  55  41 SE5       30.00F HAZE
GRAHAM         CLOUDY    82  58  43 NE5       29.99S
MINERAL WELLS  CLEAR     81  56  42 E6        29.99S
STEPHENVILLE   SUNNY     78  56  45 E6        30.04S
COMANCHE       SUNNY     79  57  48 SE3       30.02S
BROWNWOOD      SUNNY     77  55  47 SE5       30.02S
COLEMAN        SUNNY     78  57  48 E7        30.03S
BRADY          MOSUNNY   79  54  41 NE8       30.02S
$$

TXZ143>147-156>162-174-175-210000-
CENTRAL TEXAS

CITY           SKY/WX    TMP DP  RH WIND       PRES   REMARKS
WACO           CLEAR     79  58  48 E5        30.00S
WACO-MCGREGOR  PTCLDY    79  55  44 E7        30.02S
HILLSBORO      CLEAR     80  56  43 SE6       30.01S
CORSICANA      PTCLDY    77  60  55 E7        30.03R
MEXIA          CLEAR     76  60  57 NE5       30.00S
HEARNE         CLEAR     78  60  53 NE5       30.01S
CAMERON        CLEAR     78  60  53 CALM      29.99S
TEMPLE         PTCLDY    77  55  47 E8        30.00S
KILLEEN        PTSUNNY   79  55  44 E7        30.00F
KILLEEN-SKYLRK MOSUNNY   79  55  44 SE6       30.00F
FORT HOOD      MOSUNNY   80  58  46 NE5       30.00F
GATESVILLE     MOSUNNY   79  57  47 E3        30.02F
HAMILTON       SUNNY     78  55  44 E10       30.02F
LAMPASAS       MOSUNNY   79  58  49 E6        30.01S
$$

TXZ095>097-106>112-122>126-135>138-148>153-164>167-210000-
EAST TEXAS

CITY           SKY/WX    TMP DP  RH WIND       PRES   REMARKS
PARIS          CLEAR     77  57  50 SE3       30.03S
SULPHUR SPRNGS   N/A     77  59  53 CALM      30.04S
MOUNT PLEASANT CLEAR     76  59  56 S3        30.04S
MINEOLA        CLEAR     77  59  53 CALM      30.03S
TYLER          CLEAR     78  54  43 NE6       30.02S
LONGVIEW       CLEAR     76  54  46 CALM      30.02S
MARSHALL       CLEAR     76  55  47 CALM      30.05S
ATHENS         CLEAR     73  57  56 E3        30.01S
PALESTINE      PTCLDY    77  59  54 NE3       30.03S
JACKSONVILLE   PTCLDY    74  56  53 CALM      30.05S
HENDERSON      CLEAR     76  55  48 CALM      30.04S
NACOGDOCHES    PTCLDY    75  57  53 CALM      30.03S
LUFKIN         CLEAR     78  57  48 NE5       30.02R
$$

SUPPLEMENTAL OBSERVATIONS (CENTRAL)

CITY           SKY/WX    TMP DP  RH WIND       PRES   REMARKS
CADDO GRASSLND   N/A     79  61  53 CALM        N/A
PAT MAYSE LAKE   N/A     79  63  57 SE1         N/A
GREENVILLE       N/A     79  59  50 SE2         N/A
CEDAR HILL       N/A     81  57  44 E2          N/A
PALESTINE        N/A     75  59  57 E2          N/A
MCGREGOR         N/A     79  55  44 E5          N/A
TEMPLE           N/A     77  57  50 E3          N/A
$$

SUPPLEMENTAL OBSERVATIONS (WEST)

CITY           SKY/WX    TMP DP  RH WIND       PRES   REMARKS
MILLERS CREEK    N/A     81  59  47 E3          N/A
POSSUM KINGDOM   N/A     81  57  44 E6          N/A
LBJ GRASSLAND    N/A     81  59  47 E3          N/A
GRANBURY         N/A     81  55  41 E6          N/A
HAMBY            N/A     79  54  41 SE7         N/A
IVIE RESERVOIR   N/A     79  54  41 E8          N/A
COLORADO BEND    N/A     77  52  41 E7          N/A
$$

SUPPLEMENTAL OBSERVATIONS (EAST)

CITY           SKY/WX    TMP DP  RH WIND       PRES   REMARKS
CLARKSVILLE      N/A     75  61  60 CALM        N/A
TEXARKANA        N/A     73  59  60 CALM        N/A
LINDEN           N/A     73  57  56 E1          N/A
GILMER           N/A     75  57  53 E1          N/A
HENDERSON        N/A     73  57  56 E2          N/A
LUFKIN           N/A     75  55  50 MISG        N/A
N SABINE NF      N/A     70  55  60 MISG        N/A
$$

SUPPLEMENTAL OBSERVATIONS ARE A COLLECTION OF AUTOMATED INSTRUMENTS
THAT ARE MAINTAINED BY A VARIETY OF FEDERAL AND STATE AGENCIES.
CERTAIN ELEMENTS...SUCH AS HUMIDITY VALUES AND SUSTAINED WIND
SPEEDS...MAY BE APPROXIMATED.



USA.gov is the U.S. government's official web portal to all federal, state and local government web resources and services.